NOAA NWS Hourly Roundups by Site

Regional Weather Roundup for Topeka, KS

To Select Another Site Choose from List

Select Site:  

000
ASUS43 KTOP 191708
RWRKS

WEATHER ROUNDUP FOR KANSAS
NATIONAL WEATHER SERVICE GOODLAND KS
1100 AM CST TUE FEB 19 2019

NOTE:  "FAIR" INDICATES FEW OR NO CLOUDS BELOW 12,000 FEET WITH NO
SIGNIFICANT WEATHER AND/OR OBSTRUCTIONS TO VISIBILITY.

KSZ001>006-013>018-027>032-041>047-191800-
NORTHWEST KANSAS

CITY           SKY/WX    TMP DP  RH WIND       PRES   REMARKS
GOODLAND       LGT SNOW  14  12  92 SE15      30.07F FOG     WCI  -1
HAYS           CLOUDY    18  16  92 E12       30.25  FOG     WCI   5
HILL CITY      CLOUDY    17  16  95 E7        30.24F FOG
RUSSELL        CLOUDY    19  18  95 E12       30.25F FOG     WCI   7
$$

KSZ061>065-074>080-084>089-191800-
SOUTHWEST KANSAS

CITY           SKY/WX    TMP DP  RH WIND       PRES   REMARKS
DODGE CITY     CLOUDY    21  16  81 E10       30.16F HAZE    WCI  10
ELKHART        CLOUDY    22  19  91 SE12      30.06F WCI  10
GARDEN CITY    CLOUDY    18  17  96 E14       30.13F FOG     WCI   4
GREAT BEND     CLOUDY    21  18  88 NE10      30.24F WCI  10
LIBERAL        FLURRIES  20  16  84 E9        30.13F
PRATT          CLOUDY    24  19  81 E9        30.22F
$$

KSZ066>073-081>083-090>101-191800-
SOUTHEAST KANSAS

CITY           SKY/WX    TMP DP  RH WIND       PRES   REMARKS
CHANUTE        CLOUDY    33  21  61 E12       30.32F WCI  24
COFFEYVILLE    PTSUNNY   35  24  64 E10       30.30F WCI  27
HUTCHINSON     CLOUDY    27  20  75 E13       30.25F WCI  16
MEDICINE LODGE   N/A     27  19  72 NE8       30.22F
NEWTON         CLOUDY    28  21  75 E14G20    30.25F WCI  17
PARSONS        CLOUDY    33  23  66 VRB6      30.32F
WICHITA INTL   CLOUDY    30  21  69 E16G23    30.24F WCI  19
WICHITA JABRA  CLOUDY    28  19  69 E12       30.25F WCI  18
WICHITA MCCONL CLOUDY    30  19  64 E15       30.23F WCI  19
WINFIELD       CLOUDY    29  20  69 E14G23    30.25F WCI  18
$$

KSZ007>012-019>026-033>040-048>060-102>105-191800-
NORTHEAST KANSAS

CITY           SKY/WX    TMP DP  RH WIND       PRES   REMARKS
CONCORDIA      CLOUDY    21  15  78 E10       30.33F WCI  10
EMPORIA        CLOUDY    27  21  78 E16       30.31F WCI  15
LAWRENCE       PTSUNNY   27  18  69 E13       30.41F WCI  16
MANHATTAN      CLOUDY    25  18  74 E14       30.36F WCI  13
MARYSVILLE     CLOUDY    21  16  79 E9        30.37F
OLATHE IND     CLOUDY    26  19  74 E13       30.40F WCI  15
OLATHE EXE     CLOUDY    25  18  74 E15G22    30.38F WCI  13
SALINA         CLOUDY    24  19  81 NE8       30.32F
TOPEKA BILLARD CLOUDY    26  18  71 E15       30.39F WCI  14
TOPEKA FORBES  CLOUDY    26  17  68 E13       30.37F WCI  15
$$


 

View Past Reports for Topeka, KS.

Products Courtesy of NOAA-NWS
NWS Information Parsing Script by Ken True at Saratoga Weather - Script by SE Lincoln Weather.